When you browse on this site, cookies collect data to enhance your experience and personalize the content and advertising you see.
Visit our Privacy Policy to learn more. By continuing to use the site, you agree to this use of cookies and data.
  • în România
  • Lista ţărilor
  • Pe 7 zile
  • Temperatura apei
  • Hartă satelitară
  • Meteo pe hartă
  • Widget-uri
  • user-avatar
    Intrare

    Meteo pe oră la Arona

    Astăzi, 18 Aprilie, Joi

    Timp Temperatura Precipitaţii Vânt Presiune Umiditate
    00:00 +13°C° 0 mm 1 m/s 740 mmHg 66%
    01:00 +13°C° 0 mm 2 m/s 739 mmHg 66%
    02:00 +12°C° 0 mm 2 m/s 739 mmHg 66%
    03:00 +12°C° 0 mm 2 m/s 740 mmHg 67%
    04:00 +12°C° 0 mm 2 m/s 740 mmHg 68%
    05:00 +12°C° 0 mm 2 m/s 740 mmHg 67%
    06:00 +12°C° 0 mm 2 m/s 740 mmHg 66%
    07:00 +13°C° 0 mm 1 m/s 740 mmHg 65%
    08:00 +14°C° 0 mm 1 m/s 740 mmHg 64%
    09:00 +15°C° 0 mm 1 m/s 740 mmHg 63%
    10:00 +16°C° 0 mm 1 m/s 740 mmHg 62%
    11:00 +18°C° 0.1 mm 1 m/s 740 mmHg 59%
    12:00 +19°C° 0.1 mm 1 m/s 740 mmHg 56%
    13:00 +20°C° 0.1 mm 1 m/s 740 mmHg 53%
    14:00 +20°C° 0.1 mm 1 m/s 740 mmHg 53%
    15:00 +20°C° 0.1 mm 1 m/s 740 mmHg 52%
    16:00 +20°C° 0.1 mm 1 m/s 740 mmHg 51%
    17:00 +19°C° 0.1 mm 1 m/s 740 mmHg 55%
    18:00 +18°C° 0.1 mm 1 m/s 740 mmHg 59%
    19:00 +15°C° 0.1 mm 0 m/s 741 mmHg 63%
    20:00 +15°C° 0.1 mm 1 m/s 741 mmHg 67%
    21:00 +14°C° 0.1 mm 1 m/s 742 mmHg 71%
    22:00 +13°C° 0.1 mm 1 m/s 743 mmHg 75%
    23:00 +13°C° 0.1 mm 1 m/s 743 mmHg 77%

    Mâine, 19 Aprilie, Vineri

    Timp Temperatura Precipitaţii Vânt Presiune Umiditate
    00:00 +13°C° 0.1 mm 1 m/s 743 mmHg 79%
    01:00 +12°C° 0.1 mm 1 m/s 744 mmHg 80%
    02:00 +12°C° 0 mm 1 m/s 744 mmHg 81%
    03:00 +12°C° 0 mm 1 m/s 744 mmHg 82%
    04:00 +12°C° 0 mm 1 m/s 744 mmHg 82%
    05:00 +12°C° 0 mm 1 m/s 744 mmHg 81%
    06:00 +12°C° 0 mm 1 m/s 744 mmHg 79%
    07:00 +13°C° 0 mm 1 m/s 745 mmHg 77%
    08:00 +14°C° 0 mm 1 m/s 745 mmHg 71%
    09:00 +16°C° 0 mm 1 m/s 744 mmHg 64%
    10:00 +19°C° 0 mm 1 m/s 744 mmHg 58%
    11:00 +20°C° 0 mm 1 m/s 744 mmHg 54%
    12:00 +20°C° 0 mm 1 m/s 744 mmHg 50%
    13:00 +21°C° 0 mm 1 m/s 744 mmHg 46%
    14:00 +21°C° 0 mm 1 m/s 744 mmHg 45%
    15:00 +21°C° 0 mm 1 m/s 744 mmHg 44%
    16:00 +21°C° 0 mm 1 m/s 744 mmHg 43%
    17:00 +20°C° 0 mm 1 m/s 744 mmHg 49%
    18:00 +19°C° 0 mm 1 m/s 743 mmHg 55%
    19:00 +18°C° 0 mm 1 m/s 743 mmHg 60%
    20:00 +16°C° 0 mm 1 m/s 744 mmHg 63%
    21:00 +15°C° 0 mm 1 m/s 744 mmHg 66%
    22:00 +14°C° 0 mm 1 m/s 745 mmHg 68%
    23:00 +14°C° 0 mm 1 m/s 745 mmHg 68%

    Poimâine, 20 Aprilie, Sâmbătă

    Timp Temperatura Precipitaţii Vânt Presiune Umiditate
    00:00 +13°C° 0 mm 1 m/s 745 mmHg 68%
    01:00 +13°C° 0 mm 1 m/s 745 mmHg 67%
    02:00 +13°C° 0 mm 1 m/s 744 mmHg 67%
    03:00 +13°C° 0 mm 1 m/s 744 mmHg 66%
    04:00 +12°C° 0 mm 1 m/s 744 mmHg 65%
    05:00 +13°C° 0 mm 1 m/s 744 mmHg 64%
    06:00 +13°C° 0 mm 1 m/s 744 mmHg 62%
    07:00 +13°C° 0 mm 1 m/s 744 mmHg 61%
    08:00 +15°C° 0 mm 1 m/s 744 mmHg 53%
    09:00 +17°C° 0 mm 0 m/s 743 mmHg 46%
    10:00 +19°C° 0 mm 0 m/s 743 mmHg 39%
    11:00 +20°C° 0 mm 0 m/s 743 mmHg 37%
    12:00 +23°C° 0 mm 1 m/s 743 mmHg 36%
    13:00 +23°C° 0 mm 1 m/s 743 mmHg 34%
    14:00 +23°C° 0 mm 1 m/s 742 mmHg 34%
    15:00 +23°C° 0 mm 1 m/s 742 mmHg 34%
    16:00 +23°C° 0 mm 1 m/s 741 mmHg 34%
    17:00 +21°C° 0 mm 1 m/s 741 mmHg 41%
    18:00 +20°C° 0 mm 1 m/s 741 mmHg 47%
    19:00 +18°C° 0 mm 1 m/s 741 mmHg 54%
    20:00 +16°C° 0 mm 1 m/s 741 mmHg 56%
    21:00 +16°C° 0 mm 1 m/s 742 mmHg 58%
    22:00 +15°C° 0 mm 1 m/s 742 mmHg 60%
    23:00 +14°C° 0 mm 1 m/s 742 mmHg 60%

    21 Aprilie, Duminică

    Timp Temperatura Precipitaţii Vânt Presiune Umiditate
    00:00 +14°C° 0 mm 1 m/s 742 mmHg 59%
    01:00 +14°C° 0 mm 1 m/s 742 mmHg 58%
    02:00 +13°C° 0 mm 2 m/s 741 mmHg 57%
    03:00 +13°C° 0 mm 2 m/s 741 mmHg 56%
    04:00 +13°C° 0 mm 2 m/s 740 mmHg 56%
    05:00 +13°C° 0 mm 2 m/s 740 mmHg 56%
    06:00 +13°C° 0 mm 1 m/s 740 mmHg 56%
    07:00 +14°C° 0 mm 1 m/s 740 mmHg 56%
    08:00 +16°C° 0 mm 1 m/s 739 mmHg 51%
    09:00 +19°C° 0 mm 1 m/s 739 mmHg 46%
    10:00 +19°C° 0 mm 0 m/s 739 mmHg 41%
    11:00 +22°C° 0 mm 1 m/s 738 mmHg 39%
    12:00 +22°C° 0 mm 1 m/s 738 mmHg 37%
    13:00 +23°C° 0 mm 2 m/s 738 mmHg 35%
    14:00 +23°C° 0 mm 2 m/s 737 mmHg 35%
    15:00 +23°C° 0 mm 2 m/s 737 mmHg 35%
    16:00 +23°C° 0 mm 2 m/s 736 mmHg 35%
    17:00 +20°C° 0 mm 2 m/s 736 mmHg 42%
    18:00 +19°C° 0 mm 2 m/s 736 mmHg 49%
    19:00 +18°C° 0 mm 1 m/s 736 mmHg 56%
    20:00 +16°C° 0.1 mm 1 m/s 737 mmHg 60%
    21:00 +16°C° 0.1 mm 1 m/s 737 mmHg 64%
    22:00 +15°C° 0.1 mm 1 m/s 737 mmHg 67%
    23:00 +15°C° 0.1 mm 1 m/s 737 mmHg 68%

    22 Aprilie, Luni

    Timp Temperatura Precipitaţii Vânt Presiune Umiditate
    00:00 +14°C° 0.1 mm 1 m/s 737 mmHg 68%
    01:00 +14°C° 0.1 mm 1 m/s 737 mmHg 68%
    02:00 +13°C° 0 mm 1 m/s 737 mmHg 69%
    03:00 +13°C° 0 mm 1 m/s 736 mmHg 70%
    04:00 +12°C° 0 mm 1 m/s 736 mmHg 71%
    05:00 +12°C° 0 mm 1 m/s 736 mmHg 69%
    06:00 +13°C° 0 mm 1 m/s 736 mmHg 67%
    07:00 +13°C° 0 mm 1 m/s 735 mmHg 65%
    08:00 +15°C° 0 mm 1 m/s 735 mmHg 59%
    09:00 +16°C° 0 mm 1 m/s 735 mmHg 53%
    10:00 +18°C° 0 mm 1 m/s 735 mmHg 47%
    11:00 +19°C° 0 mm 1 m/s 734 mmHg 43%
    12:00 +20°C° 0 mm 1 m/s 734 mmHg 39%
    13:00 +20°C° 0 mm 1 m/s 733 mmHg 35%
    14:00 +21°C° 0 mm 1 m/s 733 mmHg 34%
    15:00 +21°C° 0 mm 1 m/s 732 mmHg 33%
    16:00 +22°C° 0 mm 1 m/s 732 mmHg 33%
    17:00 +20°C° 0 mm 1 m/s 731 mmHg 39%
    18:00 +18°C° 0 mm 1 m/s 731 mmHg 46%
    19:00 +16°C° 0 mm 1 m/s 731 mmHg 52%
    20:00 +15°C° 0 mm 1 m/s 731 mmHg 57%
    21:00 +14°C° 0 mm 1 m/s 732 mmHg 62%
    22:00 +14°C° 0 mm 1 m/s 732 mmHg 67%
    23:00 +13°C° 0 mm 1 m/s 731 mmHg 68%

    23 Aprilie, Marţi

    Timp Temperatura Precipitaţii Vânt Presiune Umiditate
    00:00 +13°C° 0 mm 2 m/s 731 mmHg 68%
    01:00 +13°C° 0 mm 2 m/s 730 mmHg 69%
    02:00 +13°C° 0.1 mm 2 m/s 730 mmHg 67%
    03:00 +13°C° 0.1 mm 2 m/s 729 mmHg 65%
    04:00 +13°C° 0.1 mm 1 m/s 729 mmHg 63%
    05:00 +13°C° 0.1 mm 1 m/s 729 mmHg 63%
    06:00 +13°C° 0.1 mm 1 m/s 728 mmHg 63%
    07:00 +13°C° 0.1 mm 1 m/s 728 mmHg 63%
    08:00 +14°C° 0 mm 1 m/s 728 mmHg 62%
    09:00 +15°C° 0 mm 1 m/s 728 mmHg 60%
    10:00 +16°C° 0 mm 1 m/s 727 mmHg 59%
    11:00 +16°C° 0.1 mm 1 m/s 727 mmHg 61%
    12:00 +16°C° 0.1 mm 1 m/s 727 mmHg 63%
    13:00 +16°C° 0.1 mm 1 m/s 727 mmHg 65%
    14:00 +16°C° 0.3 mm 1 m/s 727 mmHg 68%
    15:00 +15°C° 0.3 mm 1 m/s 728 mmHg 72%
    16:00 +15°C° 0.3 mm 1 m/s 728 mmHg 76%
    17:00 +15°C° 0.2 mm 1 m/s 728 mmHg 79%
    18:00 +14°C° 0.2 mm 1 m/s 728 mmHg 83%
    19:00 +13°C° 0.2 mm 0 m/s 728 mmHg 86%
    20:00 +13°C° 0.1 mm 0 m/s 729 mmHg 87%
    21:00 +12°C° 0.1 mm 0 m/s 730 mmHg 87%
    22:00 +12°C° 0.1 mm 0 m/s 730 mmHg 87%
    23:00 +12°C° 0 mm 0 m/s 731 mmHg 87%
    Arată mai mult